Find Starlink 33548

NORAD ID: 62280 Int'l Des: 2024-237 Owner: SPXS Country: US Constellation: starlink operational
LEOCIRCULAR

現在のビュー

3D地球を読み込み中...

About Starlink 33548

Starlink 33548 (NORAD 62280) is a starlink constellation satellite (v2 mini) launched Dec 8, 2024 by SPXS of US. It operates in LEO, CIRCULAR orbit with a mass of 530.00 kg.

Starlink 33548について

説明を読み込み中...

次回通過

Passes for default location (London). Set your location on the main map for personalized predictions.

高度履歴

Loading altitude history...

軌道要素

1 62280U 24237P 26195.18758522 .00012677 00000-0 46906-3 0 9998
2 62280 42.9967 211.1069 0001231 232.3348 127.7392 15.27604044 90664
Epoch: Jul 14, 2026 • Age: 13 hours

現在のステータス

高度 483.9 km
遠地点 / 近地点 N/A
速度 7.63 km/s
衛星直下点 31.14°N, 150.9°E
打ち上げ日 Dec 8, 2024
運用期間 1.5 years
タイプ internet

技術仕様

分類 Payload
質量 530.00 kg
乾燥質量 500.00 kg
総質量 530.00 kg
長さ 0.30 m
直径 4.10 m
スパン 29.00 m
形状 Box + pan
製造者 SPXS
バスタイプ Starlink V2MO
フェーズステータス In Orbit
所有者/国 SPXS/US

Most Searched